Regional Weather Roundup
Issued by NWS

Home | Current Version | Previous Version | Text Only | Print | Product List | Glossary On
Versions: 1 2 3 4 5 6 7 8 9 10 11 12 13 14 15 16 17 18 19 20 21 22 23 24 25 26 27 28 29 30 31 32 33 34 35 36 37 38 39 40 41 42 43 44 45 46 47 48 49 50
000
ASUS46 KPQR 240610
RWROR

OREGON REGIONAL WEATHER ROUNDUP
NATIONAL WEATHER SERVICE PORTLAND OR
1100 PM PDT SUN JUL 23 2017

NOTE: "FAIR" INDICATES FEW OR NO CLOUDS BELOW 12,000 FEET WITH
NO SIGNIFICANT WEATHER AND/OR OBSTRUCTIONS TO VISIBILITY.

ORZ001>013-240700-
NORTHWEST OREGON


CITY           SKY/WX    TMP DP  RH WIND       PRES   REMARKS
ASTORIA        LGT RAIN  58  52  80 NW16      30.05F
6HR MIN TEMP:  58; 6HR MAX TEMP:  65; 6HR PCP: TRACE;

NEWPORT        CLEAR     55  52  88 N17       30.05S
PORTLAND       CLEAR     66  51  58 NW13      29.96R
6HR MIN TEMP:  66; 6HR MAX TEMP:  83;

VANCOUVER WA   CLEAR     66  52  60 NW9G17    29.95S
6HR MIN TEMP:  66; 6HR MAX TEMP:  83;

SCAPPOOSE      CLEAR     63  50  62 N7        29.96R
6HR MIN TEMP:  63; 6HR MAX TEMP:  81;

HILLSBORO      CLEAR     61  49  64 NW12      29.96S
6HR MIN TEMP:  61; 6HR MAX TEMP:  85;

AURORA         CLEAR     66  47  50 N8        29.97R
6HR MIN TEMP:  66; 6HR MAX TEMP:  88;

MCMINNVILLE    CLEAR     65  39  38 NW6       29.97R
6HR MIN TEMP:  65; 6HR MAX TEMP:  87;

SALEM          CLEAR     66  50  56 N10       29.95R
6HR MIN TEMP:  66; 6HR MAX TEMP:  89;

CORVALLIS      CLEAR     63  52  67 W8        29.97R
EUGENE         CLEAR     65  55  70 E8        29.95R
6HR MIN TEMP:  65; 6HR MAX TEMP:  88;

$$

ORZ021-028-240700-
SOUTHWEST OREGON


CITY           SKY/WX    TMP DP  RH WIND       PRES   REMARKS
NORTH BEND     CLEAR     57  52  83 N22G29    30.02R
6HR MIN TEMP:  57; 6HR MAX TEMP:  63;

BROOKINGS      PTCLDY    58  54  86 CALM      29.87R
ROSEBURG       CLEAR     74  58  57 NW8       29.91R
6HR MIN TEMP:  74; 6HR MAX TEMP:  89;

SEXTON SUMMIT  PTCLDY    63  52  67 N12G23    30.00S
6HR MIN TEMP:  63; 6HR MAX TEMP:  77;

GRANTS PASS    FAIR      79  54  41 NW8       29.92S
MEDFORD        PTCLDY    79  59  50 NE3       29.87R
6HR MIN TEMP:  79; 6HR MAX TEMP:  97;

$$

ORZ014>016-041-240700-
COLUMBIA GORGE


CITY           SKY/WX    TMP DP  RH WIND       PRES   REMARKS
TROUTDALE      CLEAR     67  52  58 W6        29.95R
6HR MIN TEMP:  67; 6HR MAX TEMP:  85;

HOOD RIVER     CLEAR     70  55  60 CALM      29.88S
THE DALLES     CLEAR     78  58  49 NW13G23   29.82R
6HR MIN TEMP:  78; 6HR MAX TEMP:  94;

$$

ORZ029>031-041-044-049-050-061>064-502-503-505>511-240700-
EASTERN OREGON


CITY           SKY/WX    TMP DP  RH WIND       PRES   REMARKS
MADRAS         CLEAR     70  45  40 NW7       29.95F
REDMOND        PTCLDY    69  37  30 CALM      29.96S
6HR MIN TEMP:  69; 6HR MAX TEMP:  96;

BEND           MOCLDY    73  39  29 W5        30.00S
PRINEVILLE     MOCLDY    73  45  35 W6        29.97F
KLAMATH FALLS  PTCLDY    75  61  61 W6        29.97R
6HR MIN TEMP:  74; 6HR MAX TEMP:  95;

LAKEVIEW       PTCLDY    71  48  43 N16       30.05R
HERMISTON      CLEAR     77  59  53 S6        29.78R
6HR MIN TEMP:  77; 6HR MAX TEMP: 102;

PENDLETON      CLEAR     73  50  44 N3        29.84R
6HR MIN TEMP:  73; 6HR MAX TEMP:  98;

JOHN DAY       CLOUDY    79  47  32 CALM      29.98S
MEACHAM        PTCLDY    62  50  64 CALM      30.00S
6HR MIN TEMP:  62; 6HR MAX TEMP:  88;

LA GRANDE      PTCLDY    72  48  43 N3        29.91S
6HR MIN TEMP:  72; 6HR MAX TEMP:  95;

BAKER CITY     PTCLDY    66  52  60 SW6       29.96S
6HR MIN TEMP:  66; 6HR MAX TEMP:  92;

BURNS          CLOUDY    74  38  27 SW8       30.01R
6HR MIN TEMP:  74; 6HR MAX TEMP:  95;

ROME             N/A     85  32  15 W7        29.97R
6HR MIN TEMP:  84; 6HR MAX TEMP: 101;

ONTARIO        PTCLDY    76  55  48 CALM      29.84R
6HR MIN TEMP:  75; 6HR MAX TEMP:  99;

$$



USA.gov is the U.S. government's official web portal to all federal, state and local government web resources and services.